カタログに戻る

FENGYUN 1C DEB

運用中SSO
NORAD 37417·DEBRIS·🇨🇳 China

打ち上げ May 10, 1999 から Taiyuan Satellite Launch Center

Loading…

次のパス (今後24時間)

TLE

最新Source: Space-Track

元期: Sep 14, 2026, 04:49 UTC

1 37417U 99025EGK 26257.20121421  .00000381  00000-0  24417-3 0  9995
2 37417  98.8159 248.1119 0078286 204.7142 155.0268 14.07651674722257

AllMySatでFENGYUN 1C DEBをリアルタイム追跡

Download on the App Store